GAP2123 RPLL-RPVD

Flight info

Callsign GAP2123
Flight time 0h 59m
Altitude 37000
Route VERDE2R VERDE A461 SAJ/N0437F390 W3 IOO B472 NANAS NANAS1W
Aircraft A20N/M-SDE2E3FGHIRWXY/LB1

Departure

Time 2026-05-08 06:42
Airport Ninoy Aquino International Airport (RPLL)

Arrival

Time 2026-05-08 07:41
Airport Sibulan Airport (RPVD)
Time Latitude Longitude Altitude Speed Heading
2026-05-08 06:26 14.50911 121.01411 68 ft 0 kts 331°
2026-05-08 06:33 14.50906 121.01414 68 ft 1 kts 331°
2026-05-08 06:33 14.50901 121.01417 58 ft 1 kts 331°
2026-05-08 06:34 14.50895 121.01420 58 ft 1 kts 331°
2026-05-08 06:34 14.50887 121.01425 58 ft 2 kts 331°
2026-05-08 06:34 14.50874 121.01432 58 ft 2 kts 331°
2026-05-08 06:34 14.50861 121.01440 61 ft 2 kts 331°
2026-05-08 06:35 14.50848 121.01448 58 ft 2 kts 317°
2026-05-08 06:35 14.50838 121.01459 68 ft 2 kts 291°
2026-05-08 06:35 14.50837 121.01469 68 ft 0 kts 240°
2026-05-08 06:36 14.50835 121.01466 68 ft 1 kts 240°
2026-05-08 06:36 14.50827 121.01450 61 ft 4 kts 240°
2026-05-08 06:37 14.50807 121.01414 65 ft 8 kts 239°
2026-05-08 06:37 14.50774 121.01357 60 ft 11 kts 239°
2026-05-08 06:37 14.50713 121.01315 61 ft 12 kts 175°
2026-05-08 06:37 14.50644 121.01279 67 ft 13 kts 241°
2026-05-08 06:38 14.50597 121.01191 67 ft 16 kts 239°
2026-05-08 06:38 14.50538 121.01086 64 ft 18 kts 240°
2026-05-08 06:38 14.50472 121.00968 63 ft 20 kts 240°
2026-05-08 06:38 14.50399 121.00835 64 ft 22 kts 241°
2026-05-08 06:39 14.50324 121.00699 64 ft 20 kts 239°
2026-05-08 06:39 14.50252 121.00572 67 ft 21 kts 240°
2026-05-08 06:39 14.50176 121.00435 64 ft 23 kts 239°
2026-05-08 06:39 14.50095 121.00289 59 ft 24 kts 241°
2026-05-08 06:40 14.50019 121.00154 64 ft 22 kts 239°
2026-05-08 06:40 14.49944 121.00018 65 ft 21 kts 240°
2026-05-08 06:40 14.49848 120.99979 65 ft 16 kts 145°
2026-05-08 06:40 14.49818 121.00068 67 ft 12 kts 67°
2026-05-08 06:41 14.49852 121.00128 63 ft 0 kts 61°
2026-05-08 06:41 14.49853 121.00130 64 ft 2 kts 61°
2026-05-08 06:41 14.49947 121.00301 58 ft 70 kts 60°
2026-05-08 06:41 14.50317 121.00965 66 ft 142 kts 60°
2026-05-08 06:42 14.50881 121.01888 692 ft 149 kts 61°
2026-05-08 06:42 14.51447 121.02748 1665 ft 143 kts 59°
2026-05-08 06:42 14.51993 121.03615 2648 ft 141 kts 60°
2026-05-08 06:42 14.52479 121.04455 3481 ft 135 kts 64°
2026-05-08 06:43 14.52950 121.05335 3956 ft 151 kts 63°
2026-05-08 06:43 14.53481 121.06349 4409 ft 169 kts 63°
2026-05-08 06:43 14.54058 121.07481 4878 ft 187 kts 63°
2026-05-08 06:43 14.54640 121.08748 5346 ft 204 kts 76°
2026-05-08 06:44 14.54582 121.10244 5826 ft 219 kts 109°
2026-05-08 06:44 14.53646 121.11574 6276 ft 245 kts 140°
2026-05-08 06:44 14.52019 121.12304 6731 ft 270 kts 169°
2026-05-08 06:44 14.50076 121.12168 7252 ft 290 kts 193°
2026-05-08 06:45 14.48142 121.11550 7966 ft 297 kts 195°
2026-05-08 06:45 14.46147 121.10980 8802 ft 299 kts 191°
2026-05-08 06:45 14.44089 121.10576 9590 ft 302 kts 186°
2026-05-08 06:45 14.41988 121.10307 10318 ft 306 kts 184°
2026-05-08 06:46 14.39850 121.10112 11061 ft 309 kts 182°
2026-05-08 06:46 14.37679 121.09943 11774 ft 313 kts 182°
2026-05-08 06:46 14.35494 121.09781 12512 ft 316 kts 182°
2026-05-08 06:46 14.33312 121.09619 13224 ft 320 kts 182°
2026-05-08 06:47 14.31110 121.09453 13892 ft 323 kts 182°
2026-05-08 06:47 14.28859 121.09281 14562 ft 325 kts 182°
2026-05-08 06:47 14.26582 121.09103 15058 ft 335 kts 182°
2026-05-08 06:47 14.24189 121.08920 15233 ft 354 kts 182°
2026-05-08 06:48 14.21671 121.08726 15406 ft 372 kts 182°
2026-05-08 06:48 14.19041 121.08522 15788 ft 381 kts 182°
2026-05-08 06:48 14.16379 121.08311 16430 ft 383 kts 182°
2026-05-08 06:48 14.13711 121.08100 17029 ft 385 kts 182°
2026-05-08 06:49 14.11286 121.07910 17544 ft 388 kts 182°
2026-05-08 06:49 14.08582 121.07700 18131 ft 391 kts 182°
2026-05-08 06:49 14.05858 121.07489 18586 ft 395 kts 182°
2026-05-08 06:49 14.03108 121.07275 19065 ft 398 kts 182°
2026-05-08 06:50 14.00343 121.07059 19527 ft 401 kts 182°
2026-05-08 06:50 13.97536 121.06841 19987 ft 404 kts 182°
2026-05-08 06:50 13.94722 121.06623 20432 ft 408 kts 182°
2026-05-08 06:50 13.91881 121.06401 20888 ft 411 kts 182°
2026-05-08 06:51 13.89016 121.06180 21344 ft 415 kts 182°
2026-05-08 06:51 13.86120 121.05956 21806 ft 418 kts 183°
2026-05-08 06:51 13.83209 121.05731 22262 ft 421 kts 183°
2026-05-08 06:51 13.80306 121.05507 22697 ft 424 kts 183°
2026-05-08 06:52 13.77355 121.05278 23137 ft 428 kts 183°
2026-05-08 06:52 13.74372 121.05046 23548 ft 431 kts 184°
2026-05-08 06:52 13.71373 121.04813 23955 ft 433 kts 184°
2026-05-08 06:52 13.68365 121.04579 24346 ft 435 kts 184°
2026-05-08 06:53 13.65334 121.04343 24721 ft 437 kts 184°
2026-05-08 06:53 13.62290 121.04107 25102 ft 439 kts 184°
2026-05-08 06:53 13.59227 121.03869 25481 ft 441 kts 184°
2026-05-08 06:53 13.56151 121.03630 25837 ft 443 kts 184°
2026-05-08 06:54 13.53101 121.03394 26187 ft 446 kts 184°
2026-05-08 06:54 13.49999 121.03188 26547 ft 447 kts 180°
2026-05-08 06:54 13.46872 121.03210 26881 ft 449 kts 179°
2026-05-08 06:54 13.43737 121.03246 27213 ft 451 kts 179°
2026-05-08 06:55 13.40587 121.03279 27557 ft 453 kts 179°
2026-05-08 06:55 13.37429 121.03311 27861 ft 455 kts 179°
2026-05-08 06:55 13.34242 121.03342 28196 ft 457 kts 179°
2026-05-08 06:55 13.31054 121.03373 28515 ft 459 kts 179°
2026-05-08 06:56 13.27890 121.03404 28812 ft 461 kts 179°
2026-05-08 06:56 13.24676 121.03436 29124 ft 463 kts 179°
2026-05-08 06:56 13.21446 121.03468 29410 ft 465 kts 179°
2026-05-08 06:56 13.18205 121.03500 29707 ft 467 kts 179°
2026-05-08 06:57 13.14944 121.03532 29995 ft 469 kts 179°
2026-05-08 06:57 13.11680 121.03565 30235 ft 471 kts 179°
2026-05-08 06:57 13.08401 121.03597 30489 ft 472 kts 180°
2026-05-08 06:57 13.05105 121.03630 30735 ft 474 kts 180°
2026-05-08 06:58 13.01797 121.03663 30993 ft 476 kts 180°
2026-05-08 06:58 12.98483 121.03697 31331 ft 475 kts 180°
2026-05-08 06:58 12.95181 121.03731 31669 ft 475 kts 180°
2026-05-08 06:58 12.91873 121.03765 32014 ft 474 kts 180°
2026-05-08 06:59 12.88572 121.03799 32362 ft 473 kts 181°
2026-05-08 06:59 12.85280 121.03832 32683 ft 472 kts 181°
2026-05-08 06:59 12.81996 121.03864 33005 ft 472 kts 181°
2026-05-08 06:59 12.78720 121.03896 33330 ft 471 kts 181°
2026-05-08 07:00 12.75444 121.03929 33640 ft 470 kts 181°
2026-05-08 07:00 12.72209 121.03961 33921 ft 469 kts 181°
2026-05-08 07:00 12.68952 121.03993 34193 ft 468 kts 181°
2026-05-08 07:00 12.65700 121.04025 34440 ft 467 kts 181°
2026-05-08 07:01 12.62456 121.04057 34697 ft 465 kts 181°
2026-05-08 07:01 12.59212 121.04089 34937 ft 464 kts 181°
2026-05-08 07:01 12.55988 121.04120 35177 ft 463 kts 181°
2026-05-08 07:01 12.52760 121.04152 35422 ft 462 kts 181°
2026-05-08 07:02 12.49543 121.04184 35664 ft 461 kts 181°
2026-05-08 07:02 12.46331 121.04215 35886 ft 461 kts 181°
2026-05-08 07:02 12.43133 121.04247 36137 ft 459 kts 181°
2026-05-08 07:02 12.39933 121.04384 36363 ft 461 kts 174°
2026-05-08 07:03 12.36844 121.05119 36557 ft 464 kts 162°
2026-05-08 07:03 12.33913 121.06520 36745 ft 468 kts 150°
2026-05-08 07:03 12.28909 121.10823 36827 ft 472 kts 137°
2026-05-08 07:04 12.24232 121.15523 36817 ft 472 kts 138°
2026-05-08 07:04 12.19466 121.20163 36822 ft 472 kts 139°
2026-05-08 07:05 12.14671 121.24754 36820 ft 472 kts 139°
2026-05-08 07:05 12.09867 121.29341 36821 ft 472 kts 139°
2026-05-08 07:06 12.05875 121.33152 36820 ft 472 kts 139°
2026-05-08 07:06 12.00263 121.38508 36825 ft 472 kts 139°
2026-05-08 07:07 11.96267 121.42321 36824 ft 472 kts 139°
2026-05-08 07:07 11.91468 121.46895 36821 ft 472 kts 140°
2026-05-08 07:08 11.86658 121.51479 36818 ft 472 kts 140°
2026-05-08 07:08 11.81856 121.56052 36814 ft 472 kts 140°
2026-05-08 07:09 11.77051 121.60626 36813 ft 472 kts 140°
2026-05-08 07:09 11.72299 121.65147 36813 ft 472 kts 140°
2026-05-08 07:10 11.67489 121.69721 36808 ft 472 kts 140°
2026-05-08 07:10 11.62682 121.74290 36805 ft 472 kts 140°
2026-05-08 07:11 11.57869 121.78861 36804 ft 472 kts 140°
2026-05-08 07:11 11.53060 121.83427 36804 ft 472 kts 140°
2026-05-08 07:12 11.48253 121.87989 36803 ft 472 kts 140°
2026-05-08 07:12 11.43445 121.92551 36805 ft 472 kts 140°
2026-05-08 07:13 11.38643 121.97105 36811 ft 472 kts 140°
2026-05-08 07:13 11.33839 122.01660 36815 ft 471 kts 139°
2026-05-08 07:14 11.29073 122.06175 36821 ft 471 kts 139°
2026-05-08 07:14 11.24251 122.10742 36822 ft 470 kts 139°
2026-05-08 07:15 11.19481 122.15257 36829 ft 470 kts 139°
2026-05-08 07:15 11.14693 122.19788 36827 ft 470 kts 140°
2026-05-08 07:16 11.09917 122.24306 36823 ft 469 kts 139°
2026-05-08 07:16 11.05132 122.28830 36822 ft 469 kts 139°
2026-05-08 07:17 11.00344 122.33350 36814 ft 469 kts 139°
2026-05-08 07:17 10.95560 122.37865 36811 ft 469 kts 139°
2026-05-08 07:18 10.90793 122.42361 36806 ft 469 kts 139°
2026-05-08 07:18 10.85993 122.46861 36794 ft 467 kts 142°
2026-05-08 07:19 10.83420 122.48875 36604 ft 466 kts 148°
2026-05-08 07:19 10.80646 122.50562 36355 ft 462 kts 155°
2026-05-08 07:19 10.77785 122.51936 36120 ft 461 kts 158°
2026-05-08 07:19 10.74863 122.53304 35874 ft 462 kts 157°
2026-05-08 07:20 10.71944 122.54683 35637 ft 462 kts 157°
2026-05-08 07:20 10.69023 122.56067 35398 ft 462 kts 157°
2026-05-08 07:20 10.66114 122.57444 35162 ft 461 kts 157°
2026-05-08 07:20 10.63205 122.58822 34929 ft 461 kts 157°
2026-05-08 07:21 10.60289 122.60200 34696 ft 461 kts 157°
2026-05-08 07:21 10.57384 122.61574 34469 ft 460 kts 157°
2026-05-08 07:21 10.54480 122.62946 34243 ft 460 kts 156°
2026-05-08 07:21 10.51579 122.64316 34024 ft 460 kts 156°
2026-05-08 07:22 10.48679 122.65686 33800 ft 459 kts 156°
2026-05-08 07:22 10.45778 122.67056 33543 ft 459 kts 156°
2026-05-08 07:22 10.42913 122.68408 33108 ft 460 kts 156°
2026-05-08 07:22 10.39998 122.69783 32371 ft 464 kts 156°
2026-05-08 07:23 10.37052 122.71173 31401 ft 470 kts 155°
2026-05-08 07:23 10.34067 122.72580 30387 ft 476 kts 155°
2026-05-08 07:23 10.31069 122.73993 29644 ft 474 kts 155°
2026-05-08 07:23 10.28075 122.75405 28889 ft 471 kts 155°
2026-05-08 07:24 10.25118 122.76798 28226 ft 466 kts 154°
2026-05-08 07:24 10.22192 122.78177 27519 ft 463 kts 154°
2026-05-08 07:24 10.19271 122.79554 26806 ft 460 kts 154°
2026-05-08 07:24 10.16372 122.80920 26075 ft 458 kts 154°
2026-05-08 07:25 10.13492 122.82278 25378 ft 455 kts 154°
2026-05-08 07:25 10.10653 122.83615 24439 ft 453 kts 154°
2026-05-08 07:25 10.04817 122.86364 21186 ft 469 kts 154°
2026-05-08 07:26 10.01882 122.87744 20101 ft 462 kts 153°
2026-05-08 07:26 9.98981 122.89107 19083 ft 453 kts 153°
2026-05-08 07:26 9.96139 122.90442 18069 ft 446 kts 153°
2026-05-08 07:26 9.93352 122.91754 16937 ft 438 kts 153°
2026-05-08 07:27 9.90606 122.93047 15841 ft 432 kts 153°
2026-05-08 07:27 9.87902 122.94319 14813 ft 425 kts 153°
2026-05-08 07:27 9.85239 122.95572 13777 ft 419 kts 153°
2026-05-08 07:27 9.82610 122.96814 12703 ft 412 kts 152°
2026-05-08 07:28 9.80204 122.98268 11660 ft 403 kts 142°
2026-05-08 07:28 9.78115 123.00111 10622 ft 394 kts 132°
2026-05-08 07:28 9.76423 123.02225 9643 ft 387 kts 123°
2026-05-08 07:28 9.74899 123.04451 8630 ft 380 kts 123°
2026-05-08 07:29 9.73388 123.06630 7634 ft 376 kts 124°
2026-05-08 07:29 9.71895 123.08773 6723 ft 369 kts 123°
2026-05-08 07:29 9.70419 123.10892 5791 ft 364 kts 123°
2026-05-08 07:29 9.68972 123.12970 4877 ft 358 kts 123°
2026-05-08 07:30 9.67562 123.14993 4358 ft 342 kts 123°
2026-05-08 07:30 9.66241 123.16891 4119 ft 319 kts 123°
2026-05-08 07:30 9.65011 123.18659 4012 ft 294 kts 123°
2026-05-08 07:30 9.63882 123.20274 4002 ft 269 kts 123°
2026-05-08 07:31 9.62844 123.21762 4008 ft 253 kts 122°
2026-05-08 07:31 9.61799 123.23272 4003 ft 268 kts 123°
2026-05-08 07:31 9.60733 123.24810 4003 ft 263 kts 123°
2026-05-08 07:31 9.59686 123.26314 4001 ft 262 kts 123°
2026-05-08 07:32 9.58636 123.27822 4003 ft 262 kts 123°
2026-05-08 07:32 9.57578 123.29341 4004 ft 263 kts 123°
2026-05-08 07:32 9.56526 123.30849 4002 ft 262 kts 123°
2026-05-08 07:32 9.55469 123.32363 4005 ft 265 kts 123°
2026-05-08 07:33 9.54421 123.33876 3937 ft 260 kts 123°
2026-05-08 07:33 9.53368 123.35387 3821 ft 263 kts 122°
2026-05-08 07:33 9.52298 123.36920 3700 ft 270 kts 123°
2026-05-08 07:33 9.51224 123.38460 3600 ft 266 kts 123°
2026-05-08 07:34 9.50163 123.39976 3471 ft 262 kts 123°
2026-05-08 07:34 9.49108 123.41492 3345 ft 265 kts 123°
2026-05-08 07:34 9.48043 123.43016 3238 ft 265 kts 123°
2026-05-08 07:34 9.46989 123.44519 3120 ft 262 kts 123°
2026-05-08 07:35 9.45939 123.46023 3024 ft 261 kts 123°
2026-05-08 07:35 9.44886 123.47535 3000 ft 263 kts 123°
2026-05-08 07:35 9.43823 123.49054 3000 ft 265 kts 123°
2026-05-08 07:35 9.42762 123.50569 3001 ft 263 kts 123°
2026-05-08 07:36 9.41619 123.51994 3002 ft 263 kts 138°
2026-05-08 07:36 9.39997 123.52820 2997 ft 270 kts 165°
2026-05-08 07:36 9.38113 123.52819 2825 ft 276 kts 192°
2026-05-08 07:36 9.36329 123.52078 2469 ft 280 kts 207°
2026-05-08 07:37 9.34644 123.51128 2255 ft 273 kts 209°
2026-05-08 07:37 9.33144 123.50016 2119 ft 262 kts 230°
2026-05-08 07:37 9.32346 123.48438 2022 ft 246 kts 261°
2026-05-08 07:37 9.32316 123.46793 1999 ft 225 kts 277°
2026-05-08 07:38 9.32456 123.45278 1993 ft 208 kts 278°
2026-05-08 07:38 9.32592 123.43888 1995 ft 189 kts 277°
2026-05-08 07:38 9.32697 123.42639 1985 ft 165 kts 277°
2026-05-08 07:38 9.32775 123.41532 2023 ft 159 kts 276°
2026-05-08 07:39 9.32845 123.40444 1934 ft 151 kts 276°
2026-05-08 07:39 9.32906 123.39408 1679 ft 144 kts 276°
2026-05-08 07:39 9.32960 123.38413 1442 ft 139 kts 277°
2026-05-08 07:39 9.33018 123.37405 1281 ft 149 kts 276°
2026-05-08 07:40 9.33080 123.36361 1073 ft 149 kts 275°
2026-05-08 07:40 9.33129 123.35317 946 ft 149 kts 275°
2026-05-08 07:40 9.33157 123.34303 831 ft 144 kts 275°
2026-05-08 07:40 9.33234 123.33270 567 ft 149 kts 277°
2026-05-08 07:41 9.33282 123.32214 365 ft 150 kts 277°
2026-05-08 07:41 9.33358 123.31179 96 ft 147 kts 275°
2026-05-08 07:41 9.33417 123.30208 28 ft 114 kts 272°
2026-05-08 07:41 9.33444 123.29709 41 ft 34 kts 271°
2026-05-08 07:42 9.33452 123.29574 46 ft 0 kts 274°
2026-05-08 07:42 9.33454 123.29547 46 ft 8 kts 274°
2026-05-08 07:42 9.33433 123.29496 49 ft 2 kts 190°
2026-05-08 07:42 9.33389 123.29521 48 ft 12 kts 133°
2026-05-08 07:43 9.33330 123.29615 44 ft 12 kts 110°
2026-05-08 07:43 9.33330 123.29640 44 ft 5 kts 82°
2026-05-08 07:43 9.33331 123.29655 43 ft 0 kts 89°